Temperature
27 27 27 28 28 28 28 28 27 28 29 28 28 27 27 26 26 25 25 23 22 21 20 20 19 18 18 17 17 17 16 16 16 16 16 15 15 15 15 15 14 14 14 14
28 27 28 29 29 28 27 27 27 28 28 28 28 27 27 27 26 25 24 23 22 21 20 19 18 18 17 17 17 16 16 16 16 16 15 15 15 15 15 14 14 14 14 13
28 29 29 29 28 27 27 27 27 27 28 28 28 27 27 27 26 25 25 23 22 21 20 19 18 18 17 17 16 16 16 16 15 15 15 15 15 15 14 14 14 13 13 13
28 29 29 28 28 28 27 28 28 27 27 27 27 25 26 26 26 25 24 23 22 21 20 19 18 17 17 17 16 16 15 15 15 15 15 15 14 14 14 14 13 13 13 13
28 29 28 28 28 28 27 28 28 27 27 26 26 25 25 26 25 25 24 23 22 21 20 19 18 18 17 16 16 16 15 15 15 14 14 14 14 14 13 13 13 13 13 13
28 29 29 29 29 28 28 27 27 27 27 25 25 25 25 26 25 24 24 23 22 21 20 19 18 18 17 16 16 15 15 15 14 14 14 14 13 13 13 13 13 13 12 12
27 28 29 29 27 28 27 26 24 24 24 25 25 25 25 25 26 25 24 22 21 20 20 19 18 17 17 16 16 15 15 14 14 13 13 13 13 13 13 13 12 12 12 12
26 26 27 28 27 26 27 26 24 23 23 24 25 24 24 26 26 25 23 22 21 20 19 18 18 17 16 16 16 15 14 14 13 13 13 13 13 12 12 12 12 12 12 11
26 26 27 28 28 27 26 26 26 24 23 23 24 24 24 25 25 24 23 21 20 19 19 18 17 16 16 16 15 15 14 14 13 13 13 13 12 12 12 12 12 11 11 11
26 25 27 28 28 28 27 26 25 23 22 22 23 24 23 23 23 23 23 22 20 19 18 17 17 16 16 15 15 14 14 13 13 13 13 12 12 12 12 11 11 11 11 11
26 25 26 26 26 26 26 26 25 24 24 23 22 22 23 22 23 23 23 21 20 19 18 17 16 16 15 15 15 14 13 13 13 13 12 12 12 11 11 11 11 11 11 11
26 25 24 25 27 27 26 26 25 23 23 24 23 22 24 23 23 23 22 21 20 18 17 16 16 15 15 15 14 14 13 13 13 12 12 12 11 11 11 11 11 10 10 10
25 23 23 24 25 25 25 25 26 25 24 23 22 22 24 23 23 22 21 20 19 18 17 16 16 15 14 14 14 14 13 13 13 12 12 11 11 11 11 10 10 10 10 10
24 23 22 22 23 24 24 25 25 25 23 23 23 22 22 22 22 21 20 19 18 17 16 16 15 15 14 14 14 13 13 13 12 12 12 11 11 11 11 10 10 10 10 10
24 22 23 24 24 24 24 25 25 25 24 24 23 23 22 21 21 21 19 18 17 16 16 15 15 14 14 14 13 13 13 13 12 12 12 11 11 11 11 10 10 10 10 10
23 22 22 23 24 25 25 25 26 25 25 25 24 23 22 22 21 20 19 18 17 17 16 15 15 14 14 13 13 13 13 12 12 12 12 11 11 11 11 10 10 10 10 10
23 22 21 22 24 24 24 25 25 25 26 25 24 23 23 22 21 20 19 18 18 17 16 15 14 14 13 13 13 13 12 12 12 12 11 11 11 11 11 11 10 10 10 10
22 22 22 22 22 21 24 26 26 25 25 25 24 24 23 22 21 20 19 18 18 17 16 15 14 14 13 13 13 12 12 12 12 12 12 11 11 11 11 11 10 10 10 10
23 22 21 22 22 22 24 25 25 24 24 24 24 23 22 21 21 20 19 18 17 16 16 15 14 13 13 13 13 12 12 12 12 12 12 11 11 11 11 10 10 10 10 10
24 23 22 22 21 21 22 24 24 24 22 23 23 22 22 21 20 19 18 17 16 16 15 14 14 13 13 13 12 12 12 12 12 12 12 11 11 11 11 10 10 10 10 10
23 22 22 22 21 22 23 24 24 22 21 22 22 21 21 20 19 18 17 16 16 15 14 14 14 13 13 12 12 12 12 12 12 12 11 11 11 11 11 11 10 10 10 10
22 22 21 22 21 21 23 23 22 21 21 21 21 21 20 19 18 17 17 16 15 14 14 14 13 13 12 12 12 12 12 12 11 11 11 11 11 11 11 11 10 10 10 10
23 23 22 22 22 22 22 22 21 21 21 21 20 20 19 18 17 17 16 15 15 14 14 13 13 13 12 12 12 12 12 11 11 11 11 11 11 11 11 11 11 11 11 11
23 23 22 22 22 22 22 22 21 21 21 20 20 19 18 18 17 16 16 15 14 14 13 13 13 12 12 12 12 12 12 11 11 11 11 11 11 11 11 11 11 11 11 11
21 21 21 22 22 22 21 21 20 20 20 20 19 18 18 18 17 16 15 15 14 14 13 13 12 12 12 12 12 12 12 11 11 11 11 11 11 11 11 11 11 11 11 11
21 21 21 21 22 21 21 20 20 19 19 19 18 18 18 17 17 16 15 14 14 13 13 13 13 12 12 12 12 12 12 12 11 11 11 11 12 12 12 12 12 12 12 12
Wind_Speed
10 11 11 10 9 9 11 11 10 8 8 9 9 8 9 11 11 11 9 10 10 10 11 10 11 11 10 8 8 7 7 6 4 3 3 2 2 2 2 3 4 2 2 3
10 12 11 9 7 8 11 11 8 7 8 9 9 10 10 11 12 11 10 10 10 10 11 10 10 10 10 9 8 7 6 6 4 3 2 2 2 1 2 2 3 2 2 3
11 6 6 8 8 9 11 10 8 7 8 10 10 12 12 11 11 11 10 10 10 11 12 12 10 10 11 9 8 7 6 5 4 3 3 3 2 1 2 2 2 2 2 2
9 7 7 8 9 10 10 10 8 9 10 10 11 11 10 9 9 10 10 10 11 11 12 12 12 11 10 9 8 7 6 5 4 3 3 3 2 2 2 1 2 1 2 1
9 7 8 9 9 8 9 11 10 11 13 12 10 9 10 9 9 10 11 10 10 9 12 12 12 12 11 9 8 7 6 5 4 3 3 2 2 1 2 2 2 1 1 1
12 9 8 9 7 6 8 11 12 11 12 13 12 11 11 6 6 6 8 9 9 9 10 11 11 11 10 9 9 8 7 5 4 3 2 2 2 2 2 1 1 1 1 1
11 10 9 8 8 8 8 9 7 8 8 9 8 9 6 4 6 8 9 9 9 9 9 10 11 11 9 9 8 8 8 6 5 4 3 2 2 2 2 1 0 1 0 1
10 9 7 7 9 9 9 11 8 8 10 10 7 6 2 1 5 9 10 10 9 8 8 9 9 9 8 9 8 8 7 6 5 5 4 3 2 1 1 1 1 0 1 1
9 8 5 7 9 10 11 9 9 9 12 13 9 5 2 4 6 8 10 11 10 9 9 9 8 7 8 8 8 8 7 6 5 4 4 3 2 2 1 0 0 1 1 0
10 11 9 8 9 11 10 8 6 7 8 10 10 8 1 3 5 6 8 9 10 10 10 9 8 7 6 8 8 8 7 6 5 4 3 3 3 2 1 1 1 1 2 2
8 9 10 8 10 12 10 9 7 7 8 8 9 4 1 2 3 5 7 7 9 10 10 9 7 6 6 7 7 8 7 6 5 4 3 3 2 2 2 1 1 1 1 1
6 6 10 9 10 11 9 10 8 7 9 8 8 4 1 4 5 6 7 7 8 8 9 9 8 8 7 7 7 8 7 6 6 4 4 3 3 2 2 1 1 0 1 2
5 5 8 8 6 6 8 10 9 8 8 8 8 3 3 3 4 7 8 8 8 8 8 8 8 8 7 7 7 7 6 6 5 5 4 3 3 3 2 2 1 0 1 1
3 7 10 11 9 9 9 12 11 9 8 8 6 5 2 1 4 7 8 7 7 7 7 7 8 7 7 6 6 6 6 5 5 5 4 3 3 3 3 2 1 1 1 1
4 8 12 13 12 12 13 13 11 10 11 9 7 4 1 2 3 7 8 8 7 7 7 7 7 7 7 6 5 6 5 4 4 4 4 3 3 3 2 2 1 1 1 1
4 7 11 13 13 13 13 12 12 10 10 8 6 3 2 4 5 7 8 7 7 7 7 7 7 7 7 6 6 6 5 5 4 3 4 4 3 3 2 2 2 1 0 1
6 7 9 11 12 12 11 9 8 7 7 6 4 0 4 5 5 6 6 6 7 7 7 7 7 6 6 5 5 6 6 5 4 4 3 4 4 3 3 2 1 1 1 1
8 8 6 9 11 10 6 4 5 6 6 3 0 2 3 4 5 5 5 6 7 7 7 7 6 6 6 5 5 6 6 6 5 5 4 3 3 2 2 2 2 1 1 1
9 7 7 8 10 9 6 5 4 4 4 2 1 2 4 5 4 5 5 5 6 7 7 7 7 7 7 6 6 7 6 6 5 4 4 3 2 2 1 1 1 1 1 2
10 8 8 9 9 7 4 4 3 3 3 3 3 3 4 4 2 3 6 5 6 6 7 7 7 7 7 6 7 7 6 5 4 4 3 2 2 2 2 1 1 1 2 3
7 8 9 11 10 6 1 2 2 3 1 3 2 2 3 2 1 5 7 6 6 7 8 8 7 7 6 6 7 6 6 5 4 3 3 2 1 1 2 2 2 2 3 3
8 6 7 8 9 4 2 2 2 2 2 2 1 1 3 5 7 7 7 7 7 7 7 7 7 6 6 6 7 6 5 4 4 3 3 2 2 2 1 1 2 3 3 4
7 5 3 4 3 1 1 1 1 0 2 2 1 2 4 7 7 7 7 7 7 7 7 6 6 6 5 6 7 6 5 5 5 4 3 3 2 2 2 3 4 3 3 4
6 4 5 4 3 2 2 1 0 1 2 1 1 3 4 7 7 7 7 7 7 7 7 6 6 6 6 7 7 6 6 5 5 4 3 3 3 4 3 3 3 3 3 3
8 6 7 7 5 3 3 1 1 1 1 1 2 3 5 7 8 8 7 7 7 7 7 6 5 5 5 7 8 7 6 6 5 4 4 4 4 3 3 3 3 3 2 2
8 7 7 5 2 2 3 2 2 2 2 3 3 3 6 7 7 7 7 7 7 8 7 6 6 6 6 6 7 7 7 6 5 4 4 4 3 3 4 3 3 4 5 6
Wind_Direction
224 237 244 236 234 260 270 266 269 253 243 235 233 225 213 197 206 195 191 176 171 172 168 156 150 150 150 147 149 156 155 153 159 162 172 167 155 134 119 114 97 86 52 11
233 236 252 257 248 263 277 270 267 260 241 242 245 240 226 202 213 199 188 181 172 171 160 151 152 152 155 158 162 162 157 155 159 161 166 172 154 155 135 98 99 78 53 19
250 251 245 258 248 255 262 256 257 267 263 253 250 253 236 216 208 195 190 177 178 175 163 158 164 162 158 158 159 156 149 151 152 161 159 149 150 176 128 113 116 72 55 44
261 259 258 257 257 260 273 283 265 265 265 264 257 261 248 226 210 195 189 181 187 181 169 168 169 170 162 156 151 145 147 152 157 164 159 165 162 148 134 134 106 95 89 63
272 261 248 255 262 271 281 290 286 275 268 268 265 265 264 226 211 196 188 184 179 179 169 164 168 167 159 155 150 145 141 149 152 160 168 179 148 119 100 93 111 150 165 149
277 271 265 269 272 276 278 284 283 270 262 257 255 255 260 232 195 187 177 170 160 165 160 154 154 150 149 152 148 144 145 144 151 157 149 146 150 117 114 109 150 198 173 150
273 263 255 258 270 266 255 265 276 272 261 260 255 257 267 231 197 174 160 159 158 151 149 149 149 149 149 151 148 148 149 148 149 146 150 141 127 146 155 136 244 280 78 72
277 272 253 249 259 270 261 259 267 281 289 291 281 270 262 196 140 132 137 138 141 142 144 145 145 146 149 148 146 148 149 150 151 149 144 139 164 181 118 104 247 360 49 44
280 280 265 260 261 262 267 270 284 283 284 284 281 275 272 147 130 135 139 143 148 144 137 136 135 143 147 147 146 147 145 144 149 150 145 151 140 100 84 69 346 45 43 19
287 292 276 264 266 258 259 275 288 285 284 284 284 286 290 135 144 147 146 147 146 143 139 137 138 141 139 139 140 143 146 148 144 146 161 148 133 135 134 84 55 34 28 12
284 284 274 267 263 266 261 258 262 269 278 287 287 302 75 152 151 163 153 146 143 144 141 140 140 137 131 136 140 144 147 147 147 151 141 127 137 144 143 144 106 43 7 333
294 285 282 274 275 278 278 280 274 271 279 281 285 289 87 131 144 144 138 136 136 138 138 140 142 140 140 148 145 149 151 152 154 151 139 149 160 159 158 128 106 51 330 323
309 292 286 279 278 277 285 283 277 279 284 284 286 275 137 134 119 118 123 126 129 138 140 144 148 147 148 153 150 151 156 158 159 152 148 149 163 154 141 141 147 151 317 318
296 273 273 277 286 297 285 283 284 283 280 283 275 275 281 39 112 118 123 125 138 146 147 151 151 151 149 154 156 153 151 155 159 154 149 150 159 147 148 161 173 207 267 284
263 270 277 277 281 285 280 276 274 274 277 281 279 277 229 210 152 135 135 145 161 161 162 161 157 152 154 153 154 156 152 158 153 156 164 161 163 158 158 161 193 211 254 290
249 265 280 280 275 276 277 277 273 269 278 281 275 273 158 155 141 143 147 158 168 173 174 166 166 162 162 161 163 162 160 164 162 176 180 165 168 171 169 179 188 192 285 342
258 255 268 278 281 282 276 287 290 290 293 293 297 89 130 136 143 148 157 172 177 177 177 169 168 166 163 163 164 170 167 171 177 183 177 169 178 178 179 187 141 111 6 334
255 267 270 278 285 274 278 300 307 304 307 319 328 142 129 137 133 146 162 174 173 170 172 166 164 165 163 165 171 174 170 176 183 185 181 173 177 178 164 143 129 140 279 285
219 244 260 264 271 279 278 297 301 312 304 337 127 119 115 121 140 163 155 157 161 162 155 155 161 164 163 165 176 176 177 181 183 183 178 179 181 159 158 149 154 190 251 274
206 211 240 258 267 274 295 336 354 324 277 49 82 107 128 149 202 168 135 132 135 135 143 152 159 158 163 171 178 176 174 174 181 179 177 171 165 164 163 152 192 233 252 257
232 230 242 260 261 261 318 314 302 283 12 28 68 137 172 196 93 120 136 136 134 136 147 154 158 161 167 170 170 172 174 177 179 172 168 156 151 170 177 176 211 246 261 268
255 247 246 259 262 256 31 326 346 43 13 343 347 161 146 120 122 136 143 142 144 148 150 155 157 161 163 165 166 171 174 172 173 174 170 158 183 231 202 182 229 245 257 265
256 256 256 256 264 73 12 60 76 89 290 303 290 150 136 138 151 150 149 149 151 153 152 152 161 162 163 172 171 173 175 176 178 174 169 175 202 228 206 216 230 237 246 258
274 280 256 248 234 244 287 194 162 293 273 251 193 156 160 151 152 150 153 154 154 151 150 155 161 168 173 172 174 174 178 177 176 175 176 192 211 216 211 230 234 241 249 265
281 282 271 260 250 251 260 255 235 297 256 168 150 171 166 153 157 158 157 158 158 157 156 162 167 169 172 174 173 177 175 172 175 181 194 214 220 219 214 229 251 262 271 255
265 264 269 273 234 234 241 226 228 255 231 188 181 166 155 156 157 156 157 160 161 163 163 168 175 179 174 171 173 172 172 175 178 191 208 224 227 216 218 219 237 248 245 240
Height
1486 1486 1483 1478 1475 1477 1477 1478 1479 1474 1470 1474 1477 1480 1481 1483 1485 1487 1490 1493 1496 1501 1505 1508 1510 1512 1515 1517 1519 1521 1523 1525 1526 1528 1529 1530 1531 1532 1532 1532 1532 1532 1532 1532
1482 1481 1475 1471 1472 1475 1477 1480 1479 1474 1470 1473 1476 1477 1475 1477 1480 1483 1487 1490 1494 1498 1502 1505 1508 1510 1513 1515 1517 1520 1521 1523 1524 1526 1527 1528 1529 1530 1531 1531 1530 1531 1530 1530
1478 1473 1470 1471 1473 1477 1477 1478 1477 1476 1471 1470 1474 1478 1474 1473 1476 1480 1483 1488 1492 1495 1498 1501 1505 1507 1510 1513 1515 1518 1519 1521 1522 1524 1525 1527 1527 1528 1529 1529 1529 1529 1529 1528
1472 1468 1470 1472 1473 1474 1478 1470 1471 1473 1477 1478 1475 1487 1476 1470 1473 1476 1481 1485 1489 1492 1497 1500 1503 1505 1508 1511 1513 1515 1518 1519 1520 1522 1523 1524 1525 1526 1527 1527 1527 1528 1527 1527
1472 1468 1470 1473 1471 1470 1473 1469 1470 1471 1475 1479 1477 1486 1479 1468 1472 1474 1478 1482 1485 1489 1494 1497 1501 1504 1506 1509 1512 1514 1516 1518 1519 1520 1521 1522 1523 1524 1525 1525 1525 1526 1526 1526
1470 1467 1467 1468 1467 1468 1470 1472 1471 1470 1473 1487 1480 1485 1480 1468 1469 1473 1476 1480 1483 1488 1491 1495 1499 1503 1505 1508 1510 1512 1514 1516 1517 1518 1519 1519 1521 1521 1523 1523 1524 1525 1525 1525
1475 1468 1466 1467 1470 1470 1471 1480 1492 1492 1489 1485 1473 1478 1476 1464 1462 1467 1473 1479 1484 1488 1491 1495 1498 1502 1504 1507 1509 1511 1513 1514 1516 1517 1518 1517 1518 1520 1521 1522 1523 1523 1524 1523
1482 1479 1468 1466 1470 1473 1472 1477 1494 1505 1500 1485 1475 1478 1470 1461 1462 1468 1474 1479 1484 1488 1491 1495 1498 1500 1504 1506 1509 1511 1512 1513 1515 1516 1517 1518 1518 1520 1521 1521 1522 1523 1523 1522
1479 1477 1466 1466 1465 1468 1473 1474 1474 1486 1489 1490 1480 1473 1470 1463 1466 1469 1475 1480 1484 1488 1491 1495 1498 1501 1503 1506 1508 1510 1511 1513 1514 1515 1516 1517 1518 1519 1520 1520 1521 1521 1521 1521
1472 1478 1469 1464 1464 1464 1465 1469 1477 1488 1499 1500 1487 1478 1477 1471 1470 1471 1475 1480 1484 1488 1491 1495 1498 1501 1503 1505 1507 1509 1511 1512 1513 1514 1516 1517 1517 1518 1519 1519 1520 1520 1519 1519
1470 1479 1474 1468 1470 1469 1467 1470 1474 1479 1481 1492 1494 1487 1469 1470 1471 1474 1476 1480 1484 1488 1491 1495 1498 1500 1502 1504 1506 1508 1510 1511 1513 1514 1515 1515 1516 1517 1518 1518 1518 1518 1518 1518
1472 1477 1478 1471 1463 1459 1462 1465 1469 1483 1482 1477 1484 1486 1466 1467 1469 1472 1477 1481 1485 1488 1492 1495 1498 1500 1502 1504 1506 1508 1509 1511 1512 1513 1514 1515 1516 1516 1517 1517 1517 1517 1517 1517
1475 1481 1488 1481 1475 1467 1467 1464 1464 1467 1473 1477 1484 1484 1467 1468 1470 1472 1478 1482 1486 1489 1492 1495 1497 1500 1502 1504 1505 1508 1509 1511 1512 1513 1513 1514 1515 1516 1516 1516 1517 1517 1516 1516
1477 1482 1488 1491 1482 1473 1472 1467 1463 1467 1474 1475 1476 1476 1471 1470 1472 1475 1479 1484 1487 1490 1492 1494 1497 1499 1501 1504 1505 1507 1509 1510 1511 1512 1513 1514 1514 1515 1515 1516 1516 1516 1516 1515
1476 1481 1478 1473 1469 1468 1466 1464 1461 1464 1464 1468 1469 1469 1470 1471 1473 1476 1480 1484 1488 1490 1492 1494 1497 1499 1501 1503 1505 1507 1508 1510 1511 1512 1513 1513 1513 1514 1515 1515 1515 1515 1515 1515
1474 1480 1478 1474 1467 1464 1463 1458 1455 1456 1456 1457 1461 1466 1466 1469 1472 1476 1480 1483 1486 1489 1491 1493 1496 1498 1500 1502 1504 1506 1508 1509 1510 1511 1512 1513 1513 1514 1514 1514 1514 1515 1514 1514
1472 1476 1481 1479 1466 1464 1468 1457 1454 1453 1451 1454 1460 1464 1463 1468 1471 1475 1478 1481 1484 1487 1490 1492 1494 1497 1499 1501 1503 1505 1506 1508 1509 1511 1512 1512 1513 1513 1514 1514 1514 1514 1513 1513
1473 1475 1476 1476 1474 1482 1464 1450 1450 1452 1452 1452 1456 1460 1463 1468 1471 1475 1478 1480 1483 1485 1488 1490 1492 1495 1497 1499 1501 1504 1505 1507 1508 1510 1511 1512 1512 1513 1513 1513 1513 1512 1512 1512
1465 1472 1476 1476 1477 1469 1458 1452 1452 1456 1456 1454 1457 1460 1464 1468 1471 1474 1477 1480 1482 1484 1486 1489 1491 1493 1495 1497 1500 1502 1504 1506 1507 1509 1510 1511 1511 1512 1512 1512 1511 1511 1511 1510
1459 1465 1472 1472 1478 1479 1464 1454 1453 1457 1462 1457 1459 1462 1465 1468 1471 1474 1477 1479 1481 1483 1485 1488 1490 1492 1494 1496 1498 1501 1503 1505 1506 1507 1509 1510 1510 1511 1511 1511 1511 1510 1510 1509
1462 1463 1467 1469 1471 1464 1457 1454 1455 1466 1467 1461 1461 1464 1466 1467 1471 1474 1476 1479 1481 1483 1485 1487 1489 1491 1493 1495 1497 1499 1501 1503 1505 1507 1508 1509 1509 1510 1510 1510 1510 1509 1509 1509
1460 1463 1465 1465 1470 1468 1455 1455 1460 1464 1462 1462 1463 1465 1466 1468 1471 1474 1476 1478 1480 1482 1484 1487 1489 1491 1492 1494 1496 1498 1500 1503 1504 1506 1507 1508 1508 1509 1509 1509 1509 1509 1508 1507
1455 1456 1457 1461 1462 1457 1457 1458 1460 1461 1462 1462 1463 1464 1466 1468 1471 1473 1476 1478 1480 1482 1484 1486 1488 1490 1492 1494 1496 1497 1500 1501 1503 1505 1506 1507 1507 1508 1508 1508 1508 1508 1507 1507
1452 1451 1453 1454 1453 1455 1456 1458 1460 1461 1462 1462 1463 1464 1466 1468 1470 1473 1475 1477 1480 1482 1484 1485 1487 1489 1491 1493 1495 1497 1499 1501 1502 1504 1505 1506 1506 1507 1507 1507 1507 1507 1506 1506
1455 1455 1453 1453 1453 1454 1456 1458 1460 1461 1461 1461 1463 1464 1465 1467 1469 1472 1474 1476 1479 1481 1483 1485 1487 1489 1490 1492 1494 1496 1498 1500 1501 1503 1504 1505 1506 1506 1506 1506 1506 1506 1505 1504
1453 1452 1453 1452 1452 1453 1456 1457 1458 1459 1460 1461 1462 1464 1465 1467 1469 1471 1473 1476 1478 1480 1482 1485 1487 1488 1490 1492 1494 1495 1497 1499 1500 1502 1503 1504 1505 1505 1505 1505 1505 1504 1504 1503